Location: Newark
(59.8814°N, 10.8258°E)
Time: 06:41:23
(UTC+00:00)

Envisat - Pass Details

Date: 30 January 2020
Orbit: 764 x 766 km, 98.1° (Epoch: 27 February)

Event Time Altitude Azimuth Distance (km) Brightness Sun altitude
Rises 17:45:53 0° 193° (SSW) 3,227 6.5 -17.2°
Reaches altitude 10° 17:48:24 10° 203° (SSW) 2,305 5.8 -17.5°
Maximum altitude 17:52:57 32° 267° (W) 1,289 4.9 -18.1°
Drops below altitude 10° 17:57:33 10° 331° (NNW) 2,319 5.8 -18.7°
Sets 18:00:06 0° 341° (NNW) 3,250 6.5 -19.0°
